Previsão horária em Alkhan-Kala

Hoje, 25 Junho, Sexta-feira

Tempo Temperatura Precipitação Vento Pressão Humidade
00:00 +26°C° 0 mm 2 m/s 744 mmHg 65%
01:00 +26°C° 0 mm 2 m/s 744 mmHg 66%
02:00 +25°C° 0 mm 1 m/s 744 mmHg 67%
03:00 +25°C° 0 mm 1 m/s 744 mmHg 68%
04:00 +25°C° 0 mm 1 m/s 744 mmHg 66%
05:00 +26°C° 0 mm 1 m/s 744 mmHg 64%
06:00 +27°C° 0 mm 1 m/s 744 mmHg 62%
07:00 +29°C° 0 mm 2 m/s 744 mmHg 57%
08:00 +31°C° 0 mm 2 m/s 744 mmHg 52%
09:00 +34°C° 0 mm 2 m/s 743 mmHg 48%
10:00 +35°C° 0 mm 2 m/s 743 mmHg 43%
11:00 +37°C° 0 mm 3 m/s 743 mmHg 39%
12:00 +38°C° 0 mm 3 m/s 743 mmHg 35%
13:00 +39°C° 0 mm 3 m/s 742 mmHg 34%
14:00 +39°C° 0 mm 3 m/s 742 mmHg 33%
15:00 +41°C° 0 mm 4 m/s 742 mmHg 32%
16:00 +40°C° 0 mm 4 m/s 742 mmHg 34%
17:00 +38°C° 0 mm 4 m/s 742 mmHg 37%
18:00 +37°C° 0 mm 4 m/s 742 mmHg 40%
19:00 +35°C° 0 mm 3 m/s 742 mmHg 48%
20:00 +33°C° 0 mm 3 m/s 742 mmHg 56%
21:00 +29°C° 0 mm 2 m/s 743 mmHg 65%
22:00 +28°C° 0 mm 2 m/s 743 mmHg 67%
23:00 +28°C° 0 mm 2 m/s 743 mmHg 69%

Amanhã, 26 Junho, Sábado

Tempo Temperatura Precipitação Vento Pressão Humidade
00:00 +27°C° 0 mm 2 m/s 743 mmHg 71%
01:00 +27°C° 0 mm 2 m/s 743 mmHg 68%
02:00 +27°C° 0 mm 2 m/s 742 mmHg 66%
03:00 +27°C° 0 mm 2 m/s 742 mmHg 64%
04:00 +27°C° 0 mm 2 m/s 742 mmHg 63%
05:00 +27°C° 0 mm 2 m/s 742 mmHg 62%
06:00 +28°C° 0 mm 2 m/s 742 mmHg 61%
07:00 +29°C° 0 mm 2 m/s 742 mmHg 56%
08:00 +31°C° 0 mm 2 m/s 742 mmHg 51%
09:00 +34°C° 0 mm 3 m/s 742 mmHg 47%
10:00 +36°C° 0 mm 3 m/s 742 mmHg 43%
11:00 +37°C° 0 mm 3 m/s 741 mmHg 39%
12:00 +38°C° 0 mm 3 m/s 741 mmHg 35%
13:00 +39°C° 0 mm 3 m/s 741 mmHg 34%
14:00 +40°C° 0 mm 4 m/s 740 mmHg 33%
15:00 +41°C° 0 mm 4 m/s 740 mmHg 32%
16:00 +40°C° 0 mm 4 m/s 740 mmHg 35%
17:00 +38°C° 0 mm 4 m/s 740 mmHg 39%
18:00 +37°C° 0 mm 4 m/s 740 mmHg 42%
19:00 +35°C° 0.1 mm 3 m/s 741 mmHg 49%
20:00 +33°C° 0.1 mm 3 m/s 741 mmHg 57%
21:00 +30°C° 0.1 mm 2 m/s 741 mmHg 64%
22:00 +29°C° 0.2 mm 2 m/s 741 mmHg 68%
23:00 +28°C° 0.2 mm 2 m/s 742 mmHg 72%

Depois de amanhã, 27 Junho, Domingo

Tempo Temperatura Precipitação Vento Pressão Humidade
00:00 +27°C° 0.2 mm 2 m/s 742 mmHg 75%
01:00 +27°C° 0 mm 2 m/s 742 mmHg 74%
02:00 +27°C° 0 mm 2 m/s 741 mmHg 73%
03:00 +26°C° 0 mm 1 m/s 741 mmHg 73%
04:00 +27°C° 0 mm 2 m/s 742 mmHg 71%
05:00 +27°C° 0 mm 2 m/s 742 mmHg 70%
06:00 +27°C° 0 mm 2 m/s 742 mmHg 69%
07:00 +29°C° 0 mm 3 m/s 743 mmHg 62%
08:00 +31°C° 0 mm 3 m/s 743 mmHg 56%
09:00 +34°C° 0 mm 3 m/s 743 mmHg 50%
10:00 +35°C° 0 mm 3 m/s 743 mmHg 47%
11:00 +35°C° 0 mm 3 m/s 743 mmHg 45%
12:00 +36°C° 0 mm 3 m/s 742 mmHg 42%
13:00 +37°C° 0 mm 2 m/s 742 mmHg 40%
14:00 +38°C° 0 mm 2 m/s 742 mmHg 38%
15:00 +38°C° 0 mm 2 m/s 742 mmHg 37%
16:00 +38°C° 0 mm 2 m/s 742 mmHg 38%
17:00 +37°C° 0 mm 3 m/s 742 mmHg 40%
18:00 +37°C° 0 mm 3 m/s 742 mmHg 42%
19:00 +35°C° 0.1 mm 2 m/s 742 mmHg 50%
20:00 +31°C° 0.1 mm 2 m/s 743 mmHg 58%
21:00 +29°C° 0.1 mm 2 m/s 743 mmHg 65%
22:00 +29°C° 0.1 mm 2 m/s 743 mmHg 68%
23:00 +28°C° 0.1 mm 2 m/s 743 mmHg 71%

28 Junho, Segunda-feira

Tempo Temperatura Precipitação Vento Pressão Humidade
00:00 +27°C° 0.1 mm 2 m/s 743 mmHg 74%
01:00 +26°C° 0.6 mm 2 m/s 743 mmHg 78%
02:00 +25°C° 0.6 mm 2 m/s 743 mmHg 82%
03:00 +24°C° 0.6 mm 2 m/s 744 mmHg 86%
04:00 +24°C° 0.2 mm 2 m/s 744 mmHg 85%
05:00 +25°C° 0.2 mm 2 m/s 744 mmHg 84%
06:00 +25°C° 0.2 mm 2 m/s 745 mmHg 83%
07:00 +27°C° 0.1 mm 3 m/s 745 mmHg 74%
08:00 +29°C° 0.1 mm 3 m/s 745 mmHg 64%
09:00 +31°C° 0.1 mm 3 m/s 745 mmHg 55%
10:00 +34°C° 0 mm 3 m/s 745 mmHg 51%
11:00 +35°C° 0 mm 3 m/s 744 mmHg 47%
12:00 +36°C° 0 mm 3 m/s 744 mmHg 42%
13:00 +37°C° 0 mm 3 m/s 744 mmHg 41%
14:00 +37°C° 0 mm 3 m/s 744 mmHg 39%
15:00 +38°C° 0 mm 3 m/s 743 mmHg 37%
16:00 +37°C° 0.1 mm 3 m/s 743 mmHg 41%
17:00 +36°C° 0.1 mm 3 m/s 743 mmHg 45%
18:00 +35°C° 0.1 mm 3 m/s 743 mmHg 48%
19:00 +34°C° 0.2 mm 2 m/s 744 mmHg 54%
20:00 +31°C° 0.2 mm 2 m/s 744 mmHg 60%
21:00 +29°C° 0.2 mm 2 m/s 744 mmHg 65%
22:00 +28°C° 1.3 mm 2 m/s 744 mmHg 72%
23:00 +27°C° 1.3 mm 1 m/s 744 mmHg 78%

29 Junho, Terça-feira

Tempo Temperatura Precipitação Vento Pressão Humidade
00:00 +25°C° 1.3 mm 1 m/s 744 mmHg 84%
01:00 +25°C° 0.3 mm 1 m/s 744 mmHg 86%
02:00 +25°C° 0.3 mm 2 m/s 744 mmHg 87%
03:00 +24°C° 0.3 mm 3 m/s 744 mmHg 89%
04:00 +24°C° 1.1 mm 2 m/s 744 mmHg 90%
05:00 +24°C° 1.1 mm 2 m/s 745 mmHg 90%
06:00 +24°C° 1.1 mm 2 m/s 746 mmHg 91%
07:00 +25°C° 0.2 mm 2 m/s 745 mmHg 87%
08:00 +26°C° 0.2 mm 1 m/s 745 mmHg 82%
09:00 +27°C° 0.2 mm 1 m/s 745 mmHg 77%
10:00 +29°C° 0 mm 1 m/s 745 mmHg 68%
11:00 +31°C° 0 mm 1 m/s 745 mmHg 58%
12:00 +34°C° 0 mm 1 m/s 744 mmHg 49%
13:00 +34°C° 0.1 mm 1 m/s 744 mmHg 48%
14:00 +35°C° 0.1 mm 2 m/s 744 mmHg 47%
15:00 +36°C° 0.1 mm 2 m/s 743 mmHg 46%
16:00 +34°C° 0.8 mm 2 m/s 743 mmHg 54%
17:00 +31°C° 0.8 mm 2 m/s 744 mmHg 62%
18:00 +29°C° 0.8 mm 2 m/s 744 mmHg 70%
19:00 +28°C° 1.9 mm 2 m/s 744 mmHg 76%
20:00 +27°C° 1.9 mm 2 m/s 744 mmHg 82%
21:00 +25°C° 1.9 mm 2 m/s 744 mmHg 88%
22:00 +25°C° 1.5 mm 2 m/s 744 mmHg 90%
23:00 +24°C° 1.5 mm 2 m/s 744 mmHg 91%

30 Junho, Quarta-feira

Tempo Temperatura Precipitação Vento Pressão Humidade
00:00 +24°C° 1.5 mm 1 m/s 744 mmHg 92%
01:00 +24°C° 0.1 mm 1 m/s 744 mmHg 91%
02:00 +24°C° 0.1 mm 1 m/s 744 mmHg 90%
03:00 +24°C° 0.1 mm 1 m/s 744 mmHg 90%
04:00 +24°C° 0.9 mm 1 m/s 744 mmHg 90%
05:00 +24°C° 0.9 mm 1 m/s 745 mmHg 90%
06:00 +24°C° 0.9 mm 1 m/s 745 mmHg 90%
07:00 +25°C° 0.2 mm 2 m/s 746 mmHg 87%
08:00 +26°C° 0.2 mm 2 m/s 746 mmHg 83%
09:00 +26°C° 0.2 mm 2 m/s 746 mmHg 80%
10:00 +28°C° 0.1 mm 2 m/s 746 mmHg 74%
11:00 +29°C° 0.1 mm 2 m/s 745 mmHg 67%
12:00 +31°C° 0.1 mm 2 m/s 745 mmHg 60%
13:00 +31°C° 0.1 mm 2 m/s 745 mmHg 58%
14:00 +31°C° 0.1 mm 2 m/s 744 mmHg 56%
15:00 +32°C° 0.1 mm 1 m/s 744 mmHg 54%
16:00 +31°C° 1.2 mm 2 m/s 744 mmHg 62%
17:00 +29°C° 1.2 mm 2 m/s 744 mmHg 69%
18:00 +28°C° 1.2 mm 2 m/s 744 mmHg 76%
19:00 +27°C° 2.7 mm 2 m/s 745 mmHg 81%
20:00 +25°C° 2.7 mm 2 m/s 746 mmHg 87%
21:00 +24°C° 2.7 mm 2 m/s 746 mmHg 92%
22:00 +23°C° 1.5 mm 2 m/s 746 mmHg 92%
23:00 +23°C° 1.5 mm 2 m/s 746 mmHg 92%
Mostrar mais